Weather History for Santa Ynez, CA

Change the Weather History Date:

Thursday, September 4, 2014

  Actual Average (KSBA) Record (KSBA)
Temperature  
Mean Temperature 66 °F 66 °F  
Max Temperature 80 °F 75 °F 102 °F (1988)
Min Temperature 51 °F 57 °F 50 °F (2005)
Degree Days  
Heating Degree Days 0 1  
Month to date heating degree days 4  
Since 1 July heating degree days 55  
Cooling Degree Days 0 2  
Month to date cooling degree days 8  
Year to date cooling degree days 135  
Growing Degree Days 16 (Base 50)    
Moisture  
Dew Point 54 °F    
Average Humidity 75    
Maximum Humidity 100    
Minimum Humidity 42    
Precipitation  
Precipitation 0.00 in 0.00 in 0.94 in (1978)
Month to date precipitation 0.01  
Year to date precipitation 12.21  
Since 1 July precipitation 0.16  
Sea Level Pressure  
Sea Level Pressure 29.78 in    
Wind  
Wind Speed 2 mph (West)    
Max Wind Speed 13 mph    
Max Gust Speed 16 mph    
Visibility 8 miles    
Events      
T = Trace of Precipitation, MM = Missing Value Source: NWS Daily Summary

Daily Weather History Graph

Daily Weather History Graph

Search for Another Location

Airport:

Trip Planner

Search our weather history database for the weather conditions in past years. The results will help you decide how hot, cold, wet, or windy it might be!

Date:

Astronomy

Sep. 04, 2014 Rise Set
Actual Time 6:35 AM PDT 7:22 PM PDT
Civil Twilight 6:09 AM PDT 7:47 PM PDT
Nautical Twilight 5:39 AM PDT 8:18 PM PDT
Astronomical Twilight 5:08 AM PDT 8:48 PM PDT
Moon 3:57 PM PDT (9/4) 1:39 AM PDT (9/4)
Length of Visible Light 13h 37m
Length of Day
12h 46m
Waxing Gibbous, 75% of the Moon is Illuminated
Sep 4
Waxing Gibbous
Sep 8
Full
Sep 15
Last Quarter
Sep 23
New
Oct 1
First Quarter

Hourly Weather History & Observations

Time (PDT) Temp. Heat Index Dew Point Humidity Pressure Visibility Wind Dir Wind Speed Gust Speed Precip Events Conditions
12:15 AM 55.4 °F - 51.8 °F 88% 29.76 in 10.0 mi Calm Calm - N/A   Clear
12:35 AM 53.6 °F - 51.8 °F 94% 29.75 in 10.0 mi Calm Calm - N/A   Clear
12:55 AM 53.6 °F - 51.8 °F 94% 29.76 in 10.0 mi Calm Calm - N/A   Clear
1:15 AM 53.6 °F - 51.8 °F 94% 29.76 in 10.0 mi Calm Calm - N/A   Clear
1:35 AM 51.8 °F - 50.0 °F 94% 29.76 in 10.0 mi Calm Calm - N/A   Scattered Clouds
1:55 AM 53.6 °F - 50.0 °F 88% 29.75 in 10.0 mi Calm Calm - N/A   Mostly Cloudy
2:15 AM 53.6 °F - 51.8 °F 94% 29.75 in 10.0 mi Calm Calm - N/A   Overcast
2:35 AM 55.4 °F - 53.6 °F 94% 29.75 in 10.0 mi Calm Calm - N/A   Overcast
2:55 AM 55.4 °F - 53.6 °F 94% 29.75 in 4.0 mi Calm Calm - N/A   Overcast
3:15 AM 55.4 °F - 53.6 °F 94% 29.75 in 3.0 mi Calm Calm - N/A   Overcast
3:35 AM 55.4 °F - 53.6 °F 94% 29.75 in 1.8 mi Calm Calm - N/A   Overcast
3:55 AM 55.4 °F - 53.6 °F 94% 29.75 in 1.5 mi Calm Calm - N/A   Overcast
4:15 AM 55.4 °F - 53.6 °F 94% 29.75 in 1.8 mi Calm Calm - N/A   Overcast
4:35 AM 55.4 °F - 53.6 °F 94% 29.75 in 2.5 mi Calm Calm - N/A   Overcast
4:55 AM 55.4 °F - 53.6 °F 94% 29.75 in 2.0 mi Calm Calm - N/A   Overcast
5:15 AM 55.4 °F - 53.6 °F 94% 29.75 in 2.5 mi Calm Calm - N/A   Overcast
5:35 AM 55.4 °F - 53.6 °F 94% 29.75 in 3.0 mi Calm Calm - N/A   Overcast
5:55 AM 55.4 °F - 53.6 °F 94% 29.75 in 1.8 mi Calm Calm - N/A   Overcast
6:15 AM 53.6 °F - 53.6 °F 100% 29.76 in 2.0 mi Calm Calm - N/A   Overcast
6:35 AM 53.6 °F - 53.6 °F 100% 29.76 in 1.5 mi Calm Calm - N/A   Overcast
6:55 AM 53.6 °F - 53.6 °F 100% 29.76 in 1.8 mi Calm Calm - N/A   Overcast
7:15 AM 53.6 °F - 53.6 °F 100% 29.77 in 1.2 mi Calm Calm - N/A   Overcast
7:35 AM 53.6 °F - 51.8 °F 94% 29.78 in 1.8 mi Calm Calm - N/A   Overcast
7:55 AM 53.6 °F - 53.6 °F 100% 29.78 in 2.5 mi Calm Calm - N/A   Overcast
8:15 AM 53.6 °F - 53.6 °F 100% 29.79 in 2.5 mi Calm Calm - N/A   Overcast
8:35 AM 53.6 °F - 53.6 °F 100% 29.80 in 2.5 mi Calm Calm - N/A   Overcast
8:55 AM 55.4 °F - 53.6 °F 94% 29.81 in 3.0 mi Calm Calm - N/A   Overcast
9:15 AM 55.4 °F - 53.6 °F 94% 29.81 in 7.0 mi Calm Calm - N/A   Overcast
9:35 AM 57.2 °F - 55.4 °F 94% 29.81 in 7.0 mi Calm Calm - N/A   Overcast
9:55 AM 59.0 °F - 55.4 °F 88% 29.81 in 10.0 mi Calm Calm - N/A   Overcast
10:15 AM 60.8 °F - 53.6 °F 77% 29.81 in 10.0 mi Calm Calm - N/A   Overcast
10:35 AM 62.6 °F - 55.4 °F 77% 29.81 in 10.0 mi West 3.5 mph - N/A   Scattered Clouds
10:55 AM 64.4 °F - 55.4 °F 73% 29.81 in 10.0 mi WSW 4.6 mph - N/A   Clear
11:15 AM 68.0 °F - 55.4 °F 64% 29.81 in 10.0 mi West 5.8 mph - N/A   Clear
11:35 AM 69.8 °F - 55.4 °F 60% 29.81 in 10.0 mi West 6.9 mph - N/A   Clear
11:55 AM 69.8 °F - 55.4 °F 60% 29.80 in 10.0 mi West 4.6 mph - N/A   Clear
12:15 PM 71.6 °F - 55.4 °F 57% 29.80 in 10.0 mi WSW 4.6 mph - N/A   Clear
12:35 PM 73.4 °F - 55.4 °F 53% 29.79 in 10.0 mi WSW 4.6 mph - N/A   Clear
12:55 PM 75.2 °F - 55.4 °F 50% 29.79 in 10.0 mi West 8.1 mph - N/A   Clear
1:15 PM 77.0 °F - 55.4 °F 47% 29.79 in 10.0 mi WNW 9.2 mph - N/A   Clear
1:35 PM 77.0 °F - 55.4 °F 47% 29.79 in 10.0 mi West 6.9 mph - N/A   Clear
1:55 PM 77.0 °F - 55.4 °F 47% 29.79 in 10.0 mi West 8.1 mph - N/A   Clear
2:15 PM 77.0 °F - 55.4 °F 47% 29.78 in 10.0 mi WNW 10.4 mph - N/A   Clear
2:35 PM 77.0 °F - 55.4 °F 47% 29.78 in 10.0 mi WNW 6.9 mph - N/A   Clear
2:55 PM 78.8 °F - 55.4 °F 44% 29.77 in 10.0 mi West 10.4 mph - N/A   Clear
3:15 PM 78.8 °F - 55.4 °F 44% 29.77 in 10.0 mi West 10.4 mph - N/A   Clear
3:35 PM 78.8 °F - 55.4 °F 44% 29.76 in 10.0 mi West 9.2 mph - N/A   Clear
3:55 PM 78.8 °F - 55.4 °F 44% 29.76 in 10.0 mi West 9.2 mph - N/A   Clear
4:15 PM 80.6 °F 80.5 °F 55.4 °F 42% 29.76 in 10.0 mi West 8.1 mph - N/A   Clear
4:35 PM 80.6 °F 80.5 °F 55.4 °F 42% 29.76 in 10.0 mi West 9.2 mph - N/A   Clear
4:55 PM 80.6 °F 80.5 °F 55.4 °F 42% 29.76 in 10.0 mi West 8.1 mph - N/A   Clear
5:15 PM 80.6 °F 80.5 °F 55.4 °F 42% 29.75 in 10.0 mi West 9.2 mph - N/A   Clear
5:35 PM 78.8 °F - 55.4 °F 44% 29.76 in 10.0 mi West 12.7 mph 16.1 mph N/A   Clear
5:55 PM 77.0 °F - 55.4 °F 47% 29.76 in 10.0 mi West 11.5 mph - N/A   Clear
6:15 PM 73.4 °F - 55.4 °F 53% 29.76 in 10.0 mi West 11.5 mph - N/A   Clear
6:35 PM 71.6 °F - 55.4 °F 57% 29.76 in 10.0 mi WNW 10.4 mph - N/A   Clear
6:55 PM 69.8 °F - 55.4 °F 60% 29.76 in 10.0 mi West 9.2 mph - N/A   Clear
7:15 PM 68.0 °F - 53.6 °F 60% 29.77 in 10.0 mi WNW 10.4 mph - N/A   Clear
7:35 PM 64.4 °F - 53.6 °F 68% 29.77 in 10.0 mi WNW 6.9 mph - N/A   Clear
7:55 PM 64.4 °F - 53.6 °F 68% 29.78 in 10.0 mi WNW 5.8 mph - N/A   Clear
8:15 PM 62.6 °F - 53.6 °F 72% 29.79 in 10.0 mi West 5.8 mph - N/A   Clear
8:35 PM 62.6 °F - 53.6 °F 72% 29.80 in 10.0 mi WSW 3.5 mph - N/A   Clear
8:55 PM 60.8 °F - 53.6 °F 77% 29.80 in 10.0 mi WSW 4.6 mph - N/A   Clear
9:15 PM 60.8 °F - 53.6 °F 77% 29.81 in 10.0 mi WSW 4.6 mph - N/A   Clear
9:35 PM 59.0 °F - 53.6 °F 82% 29.82 in 10.0 mi Calm Calm - N/A   Clear
9:55 PM 59.0 °F - 53.6 °F 82% 29.82 in 10.0 mi WSW 4.6 mph - N/A   Clear
10:15 PM 59.0 °F - 51.8 °F 77% 29.83 in 10.0 mi WSW 3.5 mph - N/A   Clear
10:35 PM 57.2 °F - 51.8 °F 82% 29.83 in 10.0 mi Calm Calm - N/A   Clear
10:55 PM 57.2 °F - 51.8 °F 82% 29.83 in 10.0 mi SW 3.5 mph - N/A   Clear
11:15 PM 55.4 °F - 51.8 °F 88% 29.84 in 10.0 mi Calm Calm - N/A   Clear
11:35 PM 55.4 °F - 51.8 °F 88% 29.84 in 10.0 mi Calm Calm - N/A   Clear
11:55 PM 55.4 °F - 51.8 °F 88% 29.84 in 10.0 mi WSW 3.5 mph - N/A   Clear